Terug naar catalogus

HISPASAT 1B

ActiefCommunicatieGEO
NORAD 22723·PAYLOAD·🇪🇸 Spain

Gelanceerd Jul 22, 1993 vanaf Guiana Space Centre

Loading…

TLE

VersSource: Space-Track

Epoch: Sep 13, 2026, 17:51 UTC

1 22723U 93048A   26256.74398125 -.00000351  00000-0  00000-0 0  9990
2 22723  13.7952  12.4260 0002991 284.7508  85.6785  0.99724123120723

Volg HISPASAT 1B in realtime met AllMySat

Download on the App Store